Regional Weather Roundup
Issued by NWS

Home | Current Version | Previous Version | Text Only | Print | Product List | Glossary Off
Versions: 1 2 3 4 5 6 7 8 9 10 11 12 13 14 15 16 17 18 19 20 21 22 23 24 25 26 27 28 29 30 31 32 33 34 35 36 37 38 39 40 41 42 43 44 45 46

000
ASUS45 KPSR 221510
RWRAZ

ARIZONA HOURLY REGIONAL WEATHER ROUNDUP
NATIONAL WEATHER SERVICE PHOENIX AZ
800 AM MST MON MAY 22 2017

NOTE: FAIR INDICATES FEW OR NO CLOUDS BELOW 12,000 FEET WITH NO
SIGNIFICANT WEATHER AND/OR OBSTRUCTIONS TO VISIBILITY.

AZZ001>003-036-221600-
NORTHWEST ARIZONA

CITY           SKY/WX    TMP DP  RH WIND       PRES   REMARKS
BULLHEAD CITY  SUNNY     86  39  19 N22G29    29.91R
KINGMAN        SUNNY     76  32  20 N12       30.09R
$$

AZZ004>008-015-016-018-221600-
NORTH CENTRAL ARIZONA

CITY           SKY/WX    TMP DP  RH WIND       PRES   REMARKS
GRAND CANYON   SUNNY     61  35  37 NE8       30.29R
WILLIAMS       SUNNY     61  34  36 E5        30.27R
PRESCOTT       SUNNY     67  30  25 N3        30.17R
FLAGSTAFF      SUNNY     59  32  36 NE13G20   30.28R
PAYSON         SUNNY     70  32  24 N8        30.18S
PAGE           SUNNY     64  39  39 CALM      30.20R
$$

AZZ009>014-017-221600-
NORTHEAST ARIZONA

CITY           SKY/WX    TMP DP  RH WIND       PRES   REMARKS
WINSLOW        SUNNY     64  34  32 NW6       30.20S
SAINT JOHNS    SUNNY     57  24  28 VRB3      30.21R
WINDOW ROCK    SUNNY     59  33  37 N7        30.26S
SHOW LOW       SUNNY     55  27  33 N9        30.26S
$$

AZZ540-542>544-546-548-221600-
GREATER PHOENIX AREA

CITY           SKY/WX    TMP DP  RH WIND       PRES   REMARKS
PHOENIX        SUNNY     82  32  16 E8        29.89R
BUCKEYE        SUNNY     81  37  21 SE5       29.90R
GLENDALE       SUNNY     81  36  19 CALM      29.91R
LUKE AFB       SUNNY     81  34  18 CALM      29.89R
DEER VALLEY    SUNNY     84  25  11 NW3       29.90S
SCOTTSDALE     SUNNY     80  35  19 CALM      29.92R
MESA-FALCON    SUNNY    N/A N/A N/A N9        29.91R
MESA-GATEWAY   SUNNY     79  34  19 SE7       29.91R
CHANDLER       SUNNY     77  32  19 NW6       29.90R
$$

AZZ539-553-221600-
SOUTHWEST MARICOPA COUNTY AND PINAL COUNTY

CITY           SKY/WX    TMP DP  RH WIND       PRES   REMARKS
CASA GRANDE    SUNNY     78  31  17 CALM      29.93R
GILA BEND      SUNNY     85  24  11 N6        29.87R
$$

AZZ503-504-507>509-221600-
SOUTHEAST ARIZONA

CITY           SKY/WX    TMP DP  RH WIND       PRES   REMARKS
TUCSON         SUNNY     76  29  17 S3        30.01R
DAVIS-MONTHAN  SUNNY     77  28  16 SE7       30.00R
RYAN FIELD     SUNNY     75  28  17 CALM      29.99S
NOGALES        SUNNY     71  27  19 CALM      30.07R
SIERRA VISTA   SUNNY     77  18  11 N5        30.12R
DOUGLAS        SUNNY     73  17  12 CALM      30.08R
SAFFORD        SUNNY     73  20  13 CALM      30.01R
$$

AZZ532-221600-
SOUTHWEST ARIZONA

CITY           SKY/WX    TMP DP  RH WIND       PRES   REMARKS
YUMA           SUNNY     81  43  26 S5        29.85R
$$

CAZ041-043-047-048-061-525>527-560>570-221600-
SOUTHERN CALIFORNIA

CITY           SKY/WX    TMP DP  RH WIND       PRES   REMARKS
DOWNTOWN L.A.  CLOUDY    62  58  86 CALM      29.96R FOG
L.A. AIRPORT   FOG       59  58  96 W7        29.96R VSB 1
SAN DIEGO      PTSUNNY   63  59  87 NE5       29.98R
BURBANK        SUNNY     66  54  65 VRB3      29.95R
ONTARIO        SUNNY     68  55  63 CALM      29.95R
RIVERSIDE      SUNNY     69  52  54 CALM      29.95R
PALM SPRINGS   SUNNY     85  44  23 CALM      29.87R
EL CENTRO NAS  SUNNY     83  38  20 W3        29.85R
IMPERIAL       SUNNY     83  45  26 CALM      29.83R
BLYTHE         SUNNY     82  36  19 E3        29.86R
NEEDLES        SUNNY     88  40  18 N22G29    29.92R
$$

NVZ020-UTZ003-221600-
SOUTHERN NEVADA-UTAH

CITY           SKY/WX    TMP DP  RH WIND       PRES   REMARKS
LAS VEGAS      MOSUNNY   79  35  20 NE9       30.06R
SALT LAKE CITY MOSUNNY   59  43  55 SE3       30.27S
$$

NMZ009-TXZ055-221600-
NEW MEXICO-WEST TEXAS

CITY           SKY/WX    TMP DP  RH WIND       PRES   REMARKS
ALBUQUERQUE    MOSUNNY   65  31  28 N9        30.17R
EL PASO        SUNNY     72  49  44 VRB6      30.06R
$$


........................KEY........................
SKY/WX - SKY CONDITION/WEATHER
TMP    - TEMPERATURE IN FAHRENHEIT
DP     - DEW POINT IN FAHRENHEIT
RH     - RELATIVE HUMIDITY IN PERCENT
WIND   - DIRECTION AND SPEED IN MILES PER HOUR (MPH)
VRB    - VARIABLE WIND DIRECTION
PRES   - MEAN SEA LEVEL PRESSURE IN INCHES OF MERCURY
         F - FALLING PRESSURE   R - RISING PRESSURE
         S - STEADY PRESSURE
VSB    - VISIBILITY IN MILES
HX     - HEAT INDEX IN FAHRENHEIT
WCI    - WIND CHILL INDEX IN FAHRENHEIT
TC     - TEMPERATURE IN CELSIUS WHICH IS ALSO KNOWN AS
         TEMPERATURE IN CENTIGRADE
AFB    - AIR FORCE BASE
         LUKE AFB IS LUKE AIR FORCE BASE
         DAVIS-MONTHAN IS DAVIS-MONTHAN AIR FORCE BASE
NAS    - NAVAL AIR STATION
         EL CENTRO NAS IS EL CENTRO NAVAL AIR STATION
N/A    - NOT AVAILABLE





USA.gov is the U.S. government's official web portal to all federal, state and local government web resources and services.